• Processing (Info)

  • MPEC 2015-F105: 2015 FJ37

    The following Minor Planet Electronic Circular may be linked-to from your own Web pages, but must not otherwise be redistributed electronically.

    A form allowing access to any MPEC is at the bottom of this page.


    Read MPEC 2015-F104 Read MPEC 2015-F106


    M.P.E.C. 2015-F105                               Issued 2015 Mar. 25, 15:30 UT
    
         The Minor Planet Electronic Circulars contain information on unusual
             minor planets and routine data on comets.  They are published
       on behalf of Commission 20 of the International Astronomical Union by the
              Minor Planet Center, Smithsonian Astrophysical Observatory,
                              Cambridge, MA 02138, U.S.A.
    
                 Prepared using the Tamkin Foundation Computer Network
    
                                  MPC@CFA.HARVARD.EDU
                URL https://www.minorplanetcenter.net/    ISSN 1523-6714
    
                                       2015 FJ37
    
    Observations:
         K15F37J* C2015 03 23.24132 10 34 45.54 +07 36 02.6          21.0 VqEF105G96
         K15F37J  C2015 03 23.24789 10 34 46.66 +07 37 23.5          20.9 VqEF105G96
         K15F37J  C2015 03 23.25445 10 34 47.77 +07 38 43.4          20.8 VqEF105G96
         K15F37J  C2015 03 23.26101 10 34 48.91 +07 40 04.0          20.9 VqEF105G96
         K15F37J  C2015 03 23.36470 10 35 06.86 +08 01 01.4          21.2 VqEF105G96
         K15F37J  C2015 03 23.36842 10 35 07.49 +08 01 46.2          21.0 VqEF105G96
         K15F37J  C2015 03 23.37215 10 35 08.15 +08 02 29.8          21.9 VqEF105G96
         K15F37J  C2015 03 24.18280 10 37 54.06 +10 40 17.9          21.1 VqEF105G96
         K15F37J  C2015 03 24.18342 10 37 54.13 +10 40 25.8          21.3 VqEF105G96
         K15F37J  C2015 03 24.18465 10 37 54.34 +10 40 38.0          21.4 VqEF105G96
         K15F37J  C2015 03 25.24010 10 41 12.84 +13 49 32.8          21.7 VqEF105G96
         K15F37J  C2015 03 25.24072 10 41 12.93 +13 49 38.9          21.5 VqEF105G96
         K15F37J  C2015 03 25.24195 10 41 13.08 +13 49 51.2          21.6 VqEF105G96
         K15F37J  C2015 03 25.24256 10 41 13.20 +13 49 58.1          21.0 VqEF105G96
    
    Observer details:
    G96 Mt. Lemmon Survey.  Observers A. D. Grauer, R. E. Hill, D. C. Fuls.
        Measurers E. J. Christensen, D. C. Fuls, A. R. Gibbs, A. D. Grauer,
        R. E. Hill, J. A. Johnson, R. A. Kowalski, S. M. Larson, R. G. Matheny,
        F. C. Shelly.  1.5-m reflector + CCD.
    
    Orbital elements:
    2015 FJ37                                                Earth MOID = 0.0348 AU
    Epoch 2015 June 27.0 TT = JDT 2457200.5                 MPC
    M 171.73496              (2000.0)            P               Q
    n   0.89998628     Peri.  252.09648     +0.30417061     -0.95261664
    a   1.0624589      Node   180.20957     +0.95194952     +0.30400927
    e   0.1941196      Incl.   21.31784     +0.03567011     +0.00999459
    P   1.10           H   24.9           G   0.15           U   8
    Residuals in seconds of arc
    150323 G96  0.2+  0.4-    150323 G96  0.2-  0.3+    150325 G96  0.4+  0.1+
    150323 G96  0.2+  0.2+    150323 G96  0.3-  1.0-    150325 G96  0.3+  0.1-
    150323 G96  0.0   0.1-    150324 G96  0.0   0.1+    150325 G96  0.3-  0.4-
    150323 G96  0.4+  0.5+    150324 G96  0.5-  1.0+    150325 G96  0.1+  0.3+
    150323 G96  0.2+  0.4+    150324 G96  0.4-  0.7-
    
    Ephemeris:
    2015 FJ37                a,e,i = 1.06, 0.19, 21                  q = 0.8562
    Date    TT    R. A. (2000) Decl.     Delta      r     Elong.  Phase     V
    2015 02 23    06 25 09.0 -76 31 01   0.1630  0.9939    86.9    83.7    23.9
    ...
    2015 03 10    09 28 34.0 -49 21 15   0.09184 1.0434   121.1    54.5    21.8
    ...
    2015 03 18    10 14 29.0 -13 52 12   0.08318 1.0694   152.2    25.7    20.8
    ...
    2015 03 24    10 37 16.3 +10 06 07   0.1008  1.0885   154.3    23.4    21.2
    2015 03 25    10 40 27.7 +13 08 30   0.1053  1.0916   152.6    24.9    21.4
    2015 03 26    10 43 31.0 +15 54 45   0.1102  1.0948   150.7    26.5    21.5
    ...
    2015 04 01    10 59 30.9 +27 54 10   0.1442  1.1131   139.8    35.4    22.4
    ...
    2015 04 09    11 16 34.9 +36 02 08   0.1970  1.1364   129.3    43.0    23.3
    ...
    2015 04 24    11 42 22.0 +41 03 32   0.3046  1.1760   117.1    49.6    24.5
    
    A. U. Tomatic                (C) Copyright 2015 MPC           M.P.E.C. 2015-F105
    

    Read MPEC 2015-F104 Read MPEC 2015-F106


    MPEC number:

    Enter an MPEC number in one of the following forms:

    • 1997-B01 (the full form)
    • J97B01 (the packed version of the full form)
    • B01 (the abbreviated form)